Dublin, Isla de Irlanda

4:55 AM IST en Octubre 24, 2018 (GMT +0100)
Dublin International

Tiempo Historia de EIDW - Julio, 2018

Change the Weather History Date:

Jueves, Julio 12, 2018

  Actual Average Record
Temperature  
Temperatura media 60 ° F -  
Temperatura máxima 64 ° F 66 ° F 78 ° F (2013)
Temperatura mínima 55 ° F 53 ° F 43 ° F (2012)
Degree Days  
Grados día de calefacción 6    
Growing Degree Days 10 (Base 50)    
Moisture  
Punto de rocío 54 ° F    
Average Humidity 77    
Maximum Humidity 88    
Minimum Humidity 56    
Precipitación  
Precipitación 0.00 pul 0.08 pul - ()
Presión al nivel del mar  
Presión al nivel del mar 30.22 pul    
Viento  
Velocidad del viento 7 mph ()    
Velocidad máxima del viento 11 mph    
Max Gust Speed -    
Visibilidad 8.3 Millas    
Eventos Lluvia    
Averages and records for this station are not official NWS values.
T = Trace of Precipitation, MM = Missing Value Source: Averaged Metar Reports

Daily Weather History Graph

Daily Weather History Graph

Search for Another Location

Airport or City:

Astronomía

Jul. 12, 2018 Salida Puesta
Hora real 5:11 AM IST 9:49 PM IST
Crepúsculo civil 4:21 AM IST 10:38 PM IST
Crepúsculo náutico 3:02 AM IST 11:56 PM IST
Crepúsculo astronómico Sun does not rise 12:58 AM IST
Luna 4:29 AM IST (7/12) 9:13 PM IST (7/12)
Horas de luz 18h 16m
Horas de luz
16h 37m
Creciente menguante, 1% of the Moon is Illuminated
Jul 12
Creciente menguante
Jul 13
Nueva
Jul 19
Cuarto creciente
Jul 27
Luna llena
Ago 4
Cuarto menguante

Hourly Weather History & Observations

Hora (IST) Temp. Punto de rocío Humedad Presión Visibilidad Wind Dir Velocidad del viento Velocidad de ráfagas Precip Eventos Condiciones
12:00 AM 59.0 ° F 53.6 ° F 82% 30.21 pul 6.2 mi Norte 9.2 mph - N/A   Muy nublado
12:30 AM 59.0 ° F 53.6 ° F 82% 30.21 pul 6.2 mi NNO 9.2 mph - N/A   Muy nublado
1:00 AM 58 ° F 53 ° F 78% 30.24 pul 12 mi NNO 11.2 mph - -   Parcialmente nublado
1:00 AM 59.0 ° F 53.6 ° F 82% 30.21 pul 6.2 mi NNO 10.4 mph - N/A   Muy nublado
1:30 AM 57.2 ° F 53.6 ° F 88% 30.21 pul 6.2 mi NNO 10.4 mph - N/A   Muy nublado
2:00 AM 57 ° F 53 ° F 82% 30.24 pul 12 mi NNO 8.9 mph - -   Muy nublado
2:00 AM 57.2 ° F 53.6 ° F 88% 30.21 pul 6.2 mi NNO 9.2 mph - N/A   Muy nublado
2:30 AM 57.2 ° F 53.6 ° F 88% 30.21 pul 6.2 mi NNO 9.2 mph - N/A   Muy nublado
3:00 AM 57.2 ° F 51.8 ° F 82% 30.21 pul 6.2 mi NNO 9.2 mph - N/A   Muy nublado
3:30 AM 57.2 ° F 51.8 ° F 82% 30.21 pul 6.2 mi NNO 8.1 mph - N/A   Muy nublado
4:00 AM 56 ° F 53 ° F 84% 30.22 pul 11 mi NO 6.7 mph - -   Muy nublado
4:00 AM 57.2 ° F 51.8 ° F 82% 30.21 pul 6.2 mi NO 8.1 mph - N/A   Muy nublado
4:30 AM 57.2 ° F 51.8 ° F 82% 30.21 pul 6.2 mi NNO 8.1 mph - N/A   Muy nublado
5:00 AM 56 ° F 52 ° F 83% 30.22 pul 11 mi NO 6.7 mph - -   Muy nublado
5:00 AM 57.2 ° F 51.8 ° F 82% 30.21 pul 6.2 mi NO 8.1 mph - N/A   Muy nublado
5:30 AM 55.4 ° F 51.8 ° F 88% 30.21 pul 6.2 mi NO 8.1 mph - N/A   Muy nublado
6:00 AM 56 ° F 52 ° F 83% 30.22 pul 11 mi NO 8.9 mph - -   Muy nublado
6:00 AM 57.2 ° F 51.8 ° F 82% 30.21 pul 6.2 mi NO 8.1 mph - N/A   Muy nublado
6:30 AM 57.2 ° F 53.6 ° F 88% 30.21 pul 6.2 mi NO 9.2 mph - N/A   Muy nublado
7:00 AM 57 ° F 53 ° F 81% 30.22 pul 11 mi ONO 8.9 mph - -   Muy nublado
7:00 AM 57.2 ° F 53.6 ° F 88% 30.21 pul 6.2 mi NO 8.1 mph - N/A   Muy nublado
7:30 AM 57.2 ° F 53.6 ° F 88% 30.21 pul 6.2 mi NO 10.4 mph - N/A   Muy nublado
8:00 AM 57.2 ° F 53.6 ° F 88% 30.21 pul 6.2 mi NO 10.4 mph - N/A   Nublado
8:30 AM 57.2 ° F 53.6 ° F 88% 30.21 pul 6.2 mi ONO 10.4 mph - N/A   Muy nublado
9:00 AM 58 ° F 53 ° F 77% 30.23 pul 11 mi NO 8.9 mph - -   Nublado
9:00 AM 59.0 ° F 53.6 ° F 82% 30.21 pul 6.2 mi NO 9.2 mph - N/A   Muy nublado
9:30 AM 59.0 ° F 53.6 ° F 82% 30.21 pul 6.2 mi NO 9.2 mph - N/A   Muy nublado
10:00 AM 59.0 ° F 53.6 ° F 82% 30.21 pul 6.2 mi ONO 10.4 mph - N/A   Muy nublado
10:30 AM 60.8 ° F 53.6 ° F 77% 30.21 pul 6.2 mi NO 8.1 mph - N/A   Muy nublado
11:00 AM 62 ° F 53 ° F 66% 30.23 pul 16 mi NO 6.7 mph - -   Muy nublado
11:00 AM 62.6 ° F 53.6 ° F 72% 30.21 pul 6.2 mi NO 6.9 mph - N/A   Muy nublado
11:30 AM 62.6 ° F 53.6 ° F 72% 30.21 pul 6.2 mi NNO 8.1 mph - N/A   Muy nublado
12:00 PM 62 ° F 53 ° F 65% 30.24 pul 16 mi ONO 8.9 mph - -   Muy nublado
12:00 PM 62.6 ° F 53.6 ° F 72% 30.24 pul 6.2 mi ONO 8.1 mph - N/A   Muy nublado
12:30 PM 62.6 ° F 53.6 ° F 72% 30.24 pul 6.2 mi NO 6.9 mph - N/A   Muy nublado
1:00 PM 62 ° F 53 ° F 65% 30.24 pul 16 mi NO 6.7 mph - -   Muy nublado
1:00 PM 62.6 ° F 53.6 ° F 72% 30.24 pul 6.2 mi NO 6.9 mph - N/A   Muy nublado
1:30 PM 62.6 ° F 53.6 ° F 72% 30.21 pul 6.2 mi NO 8.1 mph - N/A   Muy nublado
2:00 PM 63 ° F 53 ° F 61% 30.24 pul 16 mi NO 8.9 mph - -   Nublado
2:00 PM 62.6 ° F 53.6 ° F 72% 30.21 pul 6.2 mi NO 8.1 mph - N/A   Muy nublado
2:30 PM 62.6 ° F 53.6 ° F 72% 30.21 pul 6.2 mi NO 6.9 mph - N/A   Muy nublado
3:00 PM 64 ° F 52 ° F 56% 30.24 pul 16 mi Norte 4.5 mph - -   Nublado
3:00 PM 64.4 ° F 53.6 ° F 68% 30.21 pul 6.2 mi Norte 4.6 mph - N/A   Muy nublado
3:30 PM 64.4 ° F 53.6 ° F 68% 30.21 pul 6.2 mi Norte 5.8 mph - N/A   Muy nublado
4:00 PM 64 ° F 55 ° F 65% 30.24 pul 16 mi NNE 8.9 mph - -   Nublado
4:00 PM 64.4 ° F 53.6 ° F 68% 30.21 pul 6.2 mi NNE 6.9 mph - N/A   Muy nublado
4:30 PM 64.4 ° F 55.4 ° F 73% 30.21 pul 6.2 mi NNE 5.8 mph - N/A   Muy nublado
5:00 PM 64 ° F 54 ° F 62% 30.23 pul 16 mi NNE 6.7 mph - -   Nublado
5:00 PM 64.4 ° F 53.6 ° F 68% 30.21 pul 6.2 mi NNE 6.9 mph - N/A   Muy nublado
5:30 PM 64.4 ° F 55.4 ° F 73% 30.21 pul 6.2 mi NNE 5.8 mph - N/A   Muy nublado
6:00 PM 64.4 ° F 55.4 ° F 73% 30.21 pul 6.2 mi NE 4.6 mph - N/A   Muy nublado
6:30 PM 64.4 ° F 55.4 ° F 73% 30.21 pul 6.2 mi NE 4.6 mph - N/A   Muy nublado
7:00 PM 64 ° F 55 ° F 65% 30.22 pul 14 mi NE 4.5 mph - -   Muy nublado
7:00 PM 64.4 ° F 55.4 ° F 73% 30.21 pul 6.2 mi NE 4.6 mph - N/A   Muy nublado
7:30 PM 62.6 ° F 55.4 ° F 77% 30.21 pul 6.2 mi ENE 4.6 mph - N/A   Muy nublado
8:00 PM 64 ° F 55 ° F 65% 30.22 pul 14 mi Este 6.7 mph - -   Muy nublado
8:00 PM 64.4 ° F 55.4 ° F 73% 30.21 pul 6.2 mi Este 5.8 mph - N/A   Muy nublado
8:30 PM 62.6 ° F 55.4 ° F 77% 30.21 pul 6.2 mi Este 4.6 mph - N/A   Muy nublado
9:00 PM 62 ° F 56 ° F 75% 30.22 pul 14 mi ESE 4.5 mph - -   Muy nublado
9:00 PM 62.6 ° F 55.4 ° F 77% 30.21 pul 6.2 mi Este 4.6 mph - N/A   Muy nublado
9:30 PM 62.6 ° F 55.4 ° F 77% 30.21 pul 6.2 mi Variable 2.3 mph - N/A   Muy nublado
10:00 PM 62 ° F 56 ° F 75% 30.23 pul 12 mi ESE 2.2 mph - -   Muy nublado
10:00 PM 60.8 ° F 55.4 ° F 82% 30.21 pul 6.2 mi ESE 2.3 mph - N/A   Muy nublado
10:30 PM 60.8 ° F 55.4 ° F 82% 30.21 pul 6.2 mi Norte 1.2 mph - N/A   Muy nublado
11:00 PM 61 ° F 54 ° F 70% 30.24 pul 12 mi NNO 4.5 mph - - Lluvia Lluvia débil
11:00 PM 60.8 ° F 53.6 ° F 77% 30.21 pul 6.2 mi Variable 3.5 mph - N/A   Muy nublado
11:30 PM 60.8 ° F 55.4 ° F 82% 30.24 pul 6.2 mi ENE 6.9 mph - N/A   Muy nublado